Flag for U.S.A. Weather past 2 weeks in Sacramento, California, U.S.A.

Now
58 °F

Clear.


Feels Like: 57 °F
Forecast: 55 / 85 °F
Wind: 7 mph from Northwest

Location: Sacramento Executive Airport

Current Time: Apr 27, 2015 at 3:53:09 AM

Latest Report: Apr 27, 2015 at 2:53 AM


Visibility: 10 mi

Pressure: 29.99 "Hg

Humidity: 70%

Dew point: 48 °F

Location of SacramentoLocation

Historic Weather in Sacramento — Graph

°F

Sacramento temperature yesterday

Maximum temperature yesterday: 79 °F (at 3:53 PM)
Minimum temperature yesterday: 47 °F (at 5:53 AM)
Average temperature yesterday: 63 °F

Past Weeks' High & Low Weather Summary

 TemperatureHumidityPressure
High85 °F (Apr 18, 3:53 PM)93% (Apr 25, 1:53 AM)30.34 "Hg (Apr 25, 1:53 AM)
Low42 °F (Apr 14, 6:53 AM)11% (Apr 14, 4:53 PM)29.74 "Hg (Apr 23, 5:53 PM)
Average63 °F55%29.95 "Hg
* Reported Apr 12 1:53 AM — Apr 27 1:53 AM, Sacramento, Weather by CustomWeather, © 2015

Note: Actual official high and low records may vary slightly from our data, if they occured in-between our weather recording intervals... More about our weather records

Advertising

Sacramento weather history for previous 24 hours

 ConditionsComfort  
Time TempWeatherWind HumidityBarometerVisibility
1:53 AM
Mon, Apr 27
55 °FClear.3 mph80%30.00 "Hg10 mi
12:53 AM58 °FClear.No wind75%30.01 "Hg10 mi
11:53 PM
Sun, Apr 26
57 °FClear.No wind81%30.02 "Hg10 mi
10:53 PM61 °FClear.3 mph70%30.02 "Hg10 mi
9:53 PM64 °FClear.No wind54%30.03 "Hg10 mi
8:53 PM66 °FClear.No wind45%30.02 "Hg10 mi
7:53 PM72 °FSunny.7 mph33%30.01 "Hg10 mi
6:53 PM78 °FSunny.7 mph25%30.01 "Hg10 mi
5:53 PM79 °FSunny.13 mph23%30.01 "Hg10 mi
4:53 PM79 °FSunny.15 mph22%30.02 "Hg10 mi
3:53 PM79 °FSunny.16 mph22%30.04 "Hg10 mi
2:53 PM77 °FSunny.13 mph23%30.06 "Hg10 mi
1:53 PM75 °FSunny.12 mph33%30.08 "Hg10 mi
12:53 PM73 °FSunny.13 mph32%30.09 "Hg10 mi
11:53 AM69 °FSunny.13 mph41%30.11 "Hg10 mi
10:53 AM66 °FSunny.9 mph50%30.13 "Hg10 mi
9:53 AM62 °FSunny.8 mph58%30.11 "Hg10 mi
8:53 AM58 °FSunny.3 mph65%30.10 "Hg10 mi
7:53 AM53 °FSunny.3 mph74%30.09 "Hg10 mi
6:53 AM49 °FClear.No wind84%30.07 "Hg10 mi
5:53 AM47 °FClear.No wind90%30.04 "Hg10 mi
4:53 AM48 °FClear.No wind86%30.04 "Hg10 mi
3:53 AM50 °FClear.No wind80%30.02 "Hg10 mi
Weather by CustomWeather, © 2015

See weather overviewHow to use our weather pages